Wind_Speed
52 51 50 51 50 50 50 50 49 48 46 46 47 47 47 47 46 45 44 44 45 45 45 45 46 47 48 47 48 48 47 46 46 46 45 44 44 45
52 52 52 51 51 50 49 48 47 46 45 44 45 43 43 43 43 42 42 42 42 42 43 44 45 45 45 46 46 46 46 46 45 44 43 43 43 43
53 52 51 51 51 50 49 47 46 45 44 43 42 40 41 42 42 41 40 40 39 39 39 40 40 42 43 43 44 44 44 43 42 42 42 42 42 42
51 51 51 50 50 49 48 46 46 45 44 42 41 40 39 40 39 38 38 37 36 36 36 37 38 38 39 40 40 41 41 41 41 40 40 40 40 41
50 50 49 49 48 48 47 46 45 44 43 41 40 39 38 37 37 35 34 34 34 34 35 36 36 35 35 37 37 36 37 37 38 38 37 37 37 39
48 47 46 46 46 45 44 44 43 41 40 39 39 38 36 35 34 32 32 32 32 32 33 34 34 33 32 33 34 34 34 34 35 35 34 33 34 34
45 44 44 43 42 41 40 39 39 37 37 37 37 36 34 33 32 31 32 32 32 33 32 33 32 32 31 31 31 32 32 31 32 33 33 32 31 31
42 42 41 40 39 38 37 36 35 35 35 35 34 33 32 31 31 31 31 31 31 31 31 30 31 30 29 28 28 29 29 30 31 31 31 31 31 31
38 38 37 36 35 34 34 33 33 33 33 33 32 32 31 31 31 30 30 30 29 28 28 27 27 27 27 26 27 27 27 29 29 29 29 29 30 31
33 33 32 32 31 31 30 30 30 30 30 29 30 30 30 30 30 29 28 27 26 26 25 24 24 25 26 25 25 25 26 27 27 27 27 27 28 27
29 29 29 29 28 28 27 27 27 27 26 26 26 27 29 29 29 28 28 27 26 25 25 24 24 24 24 24 24 24 24 25 26 25 26 26 26 25
26 26 25 25 25 25 25 25 24 24 24 24 24 25 27 27 27 27 26 26 25 25 24 22 22 22 23 23 24 24 23 23 23 23 23 24 24 24
23 22 22 22 22 22 22 22 22 22 22 22 21 22 22 23 24 24 23 23 23 24 23 23 22 22 23 22 21 21 22 21 21 20 20 22 22 22
20 20 21 21 21 21 21 20 20 20 20 20 20 20 20 20 21 21 21 21 21 21 21 21 21 20 19 19 18 18 19 19 19 18 18 19 20 21
18 18 18 19 19 20 20 19 18 19 19 19 20 20 19 19 19 20 20 19 19 19 20 19 18 17 17 16 16 16 15 16 15 16 17 17 18 19
16 16 17 18 18 18 17 17 17 18 18 18 18 19 18 18 18 17 17 17 18 17 17 17 16 15 15 14 14 14 13 13 14 14 15 16 17 17
16 16 17 17 16 16 16 17 17 18 18 18 18 18 18 17 17 17 17 17 16 16 16 15 14 13 13 13 12 11 11 12 12 13 13 14 14 14
15 15 15 15 16 16 16 16 17 18 17 17 17 17 17 17 16 16 16 16 15 15 15 14 13 12 12 11 10 10 10 10 11 11 11 11 11 11
14 14 14 14 14 14 14 15 16 16 16 16 16 16 16 15 15 15 15 14 14 14 14 13 13 12 11 10 10 9 9 10 10 10 10 10 10 9
12 12 13 13 13 13 14 14 15 15 15 15 16 16 16 15 14 14 13 13 13 13 13 13 12 11 11 10 10 10 10 9 9 9 8 8 8 8
10 11 11 12 13 13 14 14 14 14 14 15 15 15 14 14 13 13 13 13 13 12 12 12 12 11 10 10 10 10 9 9 8 8 8 7 7 6
9 10 11 11 12 12 13 13 13 13 14 14 14 13 13 13 13 13 13 12 12 12 12 12 11 11 10 10 10 9 9 8 8 7 7 7 6 5
8 9 10 10 11 11 12 12 12 12 12 12 13 13 13 13 12 12 12 12 11 12 12 11 11 11 10 10 9 9 9 8 7 6 6 6 6 5
Wind_Direction
273 273 274 275 275 277 278 278 278 277 276 277 278 278 278 278 278 278 277 276 276 276 274 273 271 270 269 269 268 269 271 271 272 273 273 273 274 274
272 273 274 275 275 277 277 276 276 276 276 277 277 277 279 279 279 277 277 278 277 275 274 273 273 272 270 269 268 269 270 271 271 271 272 273 274 274
271 272 273 274 275 276 275 273 273 273 274 276 276 277 278 279 278 276 276 276 276 276 276 275 275 273 271 271 269 269 270 270 270 270 271 272 272 273
270 271 272 273 274 274 274 273 272 272 273 275 275 275 277 278 276 275 274 275 275 275 276 276 276 277 276 274 272 272 271 270 268 269 270 272 272 272
269 270 271 272 273 272 273 272 272 271 272 274 274 275 275 276 275 274 272 272 274 276 277 276 277 277 278 276 274 273 272 270 269 269 273 274 273 274
268 269 270 271 272 272 273 272 271 271 271 272 273 273 274 273 272 273 273 274 276 277 278 278 277 277 278 278 276 274 273 272 270 271 274 274 273 274
268 269 270 270 271 272 272 271 270 269 269 270 270 270 270 269 269 271 273 276 279 280 281 281 278 277 278 278 276 276 275 274 274 274 272 273 274 276
267 268 268 269 271 271 270 269 268 267 267 268 269 268 267 265 267 270 273 276 278 280 282 280 279 276 275 276 277 278 277 278 277 275 273 273 276 277
268 268 268 269 269 269 268 267 267 267 268 267 267 265 264 263 266 269 274 276 278 280 279 278 275 272 275 279 280 282 281 278 276 278 276 275 275 276
268 267 265 267 268 269 267 266 268 269 268 266 266 263 262 263 265 268 273 275 277 277 277 276 276 274 275 277 281 283 280 278 278 278 278 277 276 277
268 266 266 266 268 268 266 267 268 267 266 264 263 262 263 265 266 269 271 272 274 276 277 277 277 276 276 277 280 283 282 280 280 279 278 276 277 278
268 267 266 265 265 265 266 267 268 266 265 262 262 262 263 265 266 268 271 272 274 275 276 277 278 277 277 279 279 281 282 281 280 280 278 273 274 276
267 265 263 262 262 265 266 266 265 262 261 260 261 262 264 266 266 267 270 273 275 276 276 276 277 278 279 280 279 279 280 282 283 281 279 276 274 276
266 264 261 260 263 264 263 264 263 260 259 259 260 262 265 266 266 267 269 274 276 277 278 277 278 282 281 278 280 281 283 283 282 281 279 278 278 278
268 264 262 262 262 263 265 264 260 259 262 261 262 264 265 267 266 266 268 272 276 278 279 279 283 286 284 281 284 286 284 284 284 282 282 282 282 281
265 266 267 263 261 262 261 259 260 261 262 261 261 263 265 265 264 266 268 272 276 276 279 280 284 287 287 287 287 288 286 284 282 281 285 289 290 289
265 265 265 261 258 257 256 258 260 261 259 258 259 262 264 265 266 268 272 275 276 277 278 279 285 289 291 292 293 292 289 285 283 285 288 291 293 294
263 262 261 257 255 255 256 257 257 257 255 255 259 260 261 262 265 268 272 274 274 274 274 276 282 290 293 296 296 296 294 294 293 294 293 294 298 299
260 258 257 258 257 253 254 255 255 254 254 256 259 259 258 261 265 268 270 272 272 272 272 275 281 288 290 292 295 293 296 299 298 300 301 302 306 306
263 261 258 258 257 256 257 256 256 256 256 257 258 258 258 259 261 263 264 267 268 268 270 273 276 282 287 292 294 294 295 296 295 298 301 307 313 315
269 265 262 261 259 258 258 258 256 255 255 256 258 257 255 255 256 259 261 263 263 264 267 269 273 280 287 290 293 294 296 294 291 294 300 309 314 314
272 270 268 265 263 261 261 260 258 256 256 256 257 255 254 253 252 254 258 259 260 262 266 269 272 277 281 287 290 287 289 289 288 291 297 303 307 310
276 275 273 271 270 267 263 259 256 256 258 258 258 257 256 254 253 254 256 256 257 260 263 265 269 274 278 281 283 279 278 280 281 283 289 295 299 303
Height
5621 5620 5619 5618 5617 5616 5615 5613 5612 5611 5611 5609 5606 5604 5601 5599 5597 5596 5595 5594 5592 5591 5590 5590 5590 5590 5590 5591 5591 5592 5593 5593 5593 5592 5592 5592 5592 5591
5607 5607 5606 5605 5604 5603 5602 5600 5599 5598 5598 5597 5594 5592 5590 5588 5586 5585 5583 5582 5581 5579 5578 5578 5577 5577 5577 5578 5578 5579 5579 5580 5580 5580 5580 5580 5580 5579
5594 5594 5593 5592 5591 5590 5589 5588 5587 5586 5585 5585 5583 5581 5579 5577 5575 5574 5572 5571 5570 5569 5567 5567 5566 5566 5566 5566 5566 5566 5567 5567 5567 5567 5568 5568 5568 5567
5581 5581 5580 5580 5579 5578 5577 5576 5575 5574 5574 5573 5572 5570 5569 5567 5565 5563 5562 5561 5560 5559 5558 5557 5556 5556 5555 5555 5554 5555 5555 5555 5555 5555 5556 5557 5556 5555
5568 5568 5568 5567 5567 5566 5565 5564 5563 5563 5562 5562 5562 5560 5559 5557 5555 5554 5553 5551 5550 5549 5548 5548 5547 5546 5545 5545 5544 5544 5543 5543 5544 5544 5545 5545 5545 5544
5556 5556 5556 5555 5555 5554 5553 5552 5552 5552 5551 5551 5551 5550 5549 5547 5546 5545 5544 5543 5542 5540 5539 5538 5537 5536 5535 5535 5534 5534 5533 5533 5533 5533 5534 5534 5535 5534
5544 5544 5544 5544 5543 5543 5542 5542 5541 5541 5541 5541 5541 5541 5540 5539 5538 5537 5537 5535 5533 5532 5531 5530 5529 5527 5526 5526 5525 5525 5525 5524 5524 5525 5525 5525 5525 5524
5532 5533 5533 5533 5533 5533 5532 5532 5532 5532 5532 5532 5532 5532 5532 5532 5531 5530 5529 5528 5527 5526 5524 5522 5520 5519 5518 5518 5518 5517 5517 5517 5516 5516 5517 5517 5516 5516
5522 5522 5522 5523 5523 5523 5523 5523 5523 5523 5523 5523 5523 5523 5524 5524 5524 5524 5522 5521 5519 5518 5517 5515 5513 5513 5512 5511 5511 5510 5509 5509 5508 5508 5508 5508 5508 5507
5512 5513 5513 5514 5514 5515 5515 5515 5515 5515 5516 5516 5516 5516 5516 5516 5517 5517 5515 5514 5513 5511 5511 5510 5508 5507 5506 5505 5504 5503 5502 5502 5501 5501 5500 5500 5500 5499
5504 5504 5505 5506 5506 5507 5507 5508 5508 5508 5508 5508 5509 5509 5509 5510 5510 5510 5509 5508 5507 5506 5505 5505 5503 5502 5501 5500 5498 5497 5496 5496 5495 5494 5493 5493 5492 5491
5497 5497 5498 5498 5499 5499 5500 5500 5501 5501 5502 5502 5502 5503 5503 5503 5503 5503 5503 5502 5502 5501 5499 5499 5498 5497 5497 5495 5493 5492 5491 5490 5489 5488 5487 5486 5485 5485
5490 5491 5491 5492 5493 5493 5493 5494 5494 5495 5495 5496 5497 5497 5497 5497 5497 5498 5497 5497 5496 5495 5494 5494 5493 5492 5491 5491 5489 5488 5486 5484 5483 5482 5481 5480 5479 5478
5484 5484 5485 5486 5487 5487 5487 5488 5488 5489 5490 5491 5491 5492 5492 5492 5492 5492 5492 5491 5491 5490 5489 5489 5488 5487 5486 5485 5485 5483 5481 5480 5478 5477 5476 5475 5474 5473
5478 5479 5479 5480 5481 5481 5482 5482 5483 5484 5485 5485 5486 5486 5487 5487 5487 5487 5487 5486 5486 5485 5484 5483 5483 5482 5482 5481 5480 5478 5477 5475 5474 5473 5471 5470 5469 5468
5473 5474 5474 5475 5476 5476 5477 5478 5478 5479 5480 5481 5481 5481 5482 5482 5482 5482 5482 5482 5481 5481 5479 5478 5478 5478 5477 5476 5475 5474 5472 5471 5470 5469 5468 5467 5465 5463
5469 5470 5470 5470 5471 5472 5472 5473 5474 5475 5475 5476 5476 5477 5477 5477 5477 5477 5477 5477 5477 5477 5476 5475 5474 5474 5473 5472 5471 5470 5469 5468 5467 5466 5464 5463 5461 5459
5465 5465 5466 5466 5467 5468 5468 5469 5469 5470 5471 5471 5472 5472 5472 5473 5473 5473 5473 5473 5473 5473 5472 5472 5471 5470 5470 5469 5468 5466 5465 5464 5463 5462 5460 5459 5458 5455
5461 5462 5462 5462 5463 5463 5464 5464 5465 5465 5466 5467 5467 5468 5468 5468 5468 5469 5469 5469 5469 5469 5469 5468 5468 5467 5467 5466 5465 5464 5463 5462 5460 5459 5457 5456 5454 5453
5457 5458 5458 5458 5459 5459 5460 5460 5461 5461 5461 5462 5462 5463 5463 5464 5464 5465 5465 5465 5465 5466 5466 5465 5465 5464 5463 5463 5462 5461 5460 5459 5458 5456 5455 5453 5452 5451
5454 5454 5454 5455 5455 5455 5456 5456 5456 5456 5457 5457 5457 5458 5459 5459 5460 5460 5461 5461 5462 5462 5462 5462 5462 5461 5461 5460 5460 5459 5458 5456 5455 5454 5452 5451 5450 5449
5451 5451 5451 5451 5451 5451 5451 5451 5451 5452 5452 5452 5453 5453 5454 5455 5456 5456 5457 5458 5458 5458 5458 5459 5458 5458 5458 5457 5456 5456 5455 5454 5452 5451 5450 5449 5448 5448
5448 5447 5447 5447 5446 5446 5446 5446 5447 5447 5447 5448 5448 5449 5450 5451 5452 5453 5453 5454 5454 5455 5455 5455 5455 5455 5454 5454 5453 5452 5452 5451 5450 5449 5449 5448 5447 5446